GW0773 Weather Reports


time (UTC)temp
C
wind
direction
speed
KPH
gust
KPH
rain 1hr
cm
rain 24hr
cm
rain mn
cm
humidity
%
barometer
mb
20260502161541 13 49 3.2 8.0 0.00 0.00 0.00 42 1020.7
20260502151538 8 111 6.4 12.9 0.00 0.00 0.00 54 1021.1
20260502123044 1 107 9.7 12.9 0.00 0.00 0.00 70 1020.8
20260502121544 1 73 8.0 12.9 0.00 0.00 0.00 70 1020.7
20260502114539 1 73 8.0 12.9 0.00 0.00 0.00 70 1020.8
20260502113039 1 82 8.0 11.3 0.00 0.00 0.00 69 1020.8
20260502111554 1 100 9.7 17.7 0.00 0.00 0.00 68 1020.8
20260502110041 1 74 3.2 6.4 0.00 0.00 0.00 67 1020.9
20260502104540 1 105 9.7 14.5 0.00 0.00 0.00 67 1020.9
20260502103052 2 75 9.7 14.5 0.00 0.00 0.00 67 1020.9
20260502101538 2 69 4.8 8.0 0.00 0.00 0.00 66 1020.9
20260502071536 5 126 4.8 9.7 0.00 0.00 0.00 57 1020.8
20260502070040 5 111 4.8 9.7 0.00 0.00 0.00 57 1020.7
20260502064539 5 89 6.4 11.3 0.00 0.00 0.00 55 1020.7
20260502063039 6 107 9.7 12.9 0.00 0.00 0.00 55 1020.6
20260502061537 6 109 4.8 14.5 0.00 0.00 0.00 54 1020.6
20260502060035 6 134 11.3 17.7 0.00 0.00 0.00 54 1020.5
20260502054543 7 127 6.4 12.9 0.00 0.00 0.00 53 1020.6
20260502053039 7 125 8.0 16.1 0.00 0.00 0.00 52 1020.5
20260502051539 7 133 6.4 19.3 0.00 0.00 0.00 52 1020.4
20260502050036 7 136 11.3 17.7 0.00 0.00 0.00 51 1020.5
20260502044541 7 114 11.3 20.9 0.00 0.00 0.00 50 1020.5
20260502043040 8 131 17.7 25.7 0.00 0.00 0.00 50 1020.5
20260502041540 8 118 14.5 22.5 0.00 0.00 0.00 49 1020.4
20260502040039 8 108 12.9 20.9 0.00 0.00 0.00 47 1020.3
20260502034536 10 135 16.1 20.9 0.00 0.00 0.00 46 1020.1
20260502033046 11 145 14.5 17.7 0.00 0.00 0.00 42 1019.9
20260502031539 11 155 8.0 16.1 0.00 0.00 0.00 40 1019.7
20260502030040 12 63 1.6 4.8 0.00 0.00 0.00 39 1019.5
20260502024537 13 0 4.8 16.1 0.00 0.00 0.00 35 1019.1
20260502023037 13 265 9.7 19.3 0.00 0.00 0.00 35 1018.8
20260502021535 15 233 6.4 14.5 0.00 0.00 0.00 35 1018.7
20260502020039 16 253 4.8 11.3 0.00 0.00 0.00 32 1018.6
20260502014544 17 249 6.4 12.9 0.00 0.00 0.00 31 1018.6
20260502013044 17 272 4.8 11.3 0.00 0.00 0.00 30 1018.6
20260502011536 17 224 4.8 11.3 0.00 0.00 0.00 29 1018.5
20260502010047 18 322 0.0 11.3 0.00 0.00 0.00 28 1018.6
20260502004553 17 341 3.2 8.0 0.00 0.00 0.00 25 1018.6
20260502003037 18 286 4.8 16.1 0.00 0.00 0.00 26 1018.6
20260502001536 18 316 6.4 16.1 0.00 0.00 0.00 26 1018.5
20260502000052 18 267 6.4 16.1 0.00 0.00 0.00 23 1018.7
20260501234540 18 305 3.2 9.7 0.00 0.00 0.00 24 1018.8
20260501233041 18 315 6.4 20.9 0.00 0.00 0.00 22 1018.7
20260501231540 18 276 1.6 11.3 0.00 0.00 0.00 28 1018.7
20260501230036 18 96 4.8 11.3 0.00 0.00 0.00 22 1018.8
20260501224542 18 97 3.2 12.9 0.00 0.00 0.00 28 1018.9
20260501223040 18 232 4.8 12.9 0.00 0.00 0.00 22 1018.9
20260501221538 18 223 4.8 16.1 0.00 0.00 0.00 23 1019.1
20260501220042 17 45 4.8 9.7 0.00 0.00 0.00 22 1019.4
20260501214537 17 202 3.2 11.3 0.00 0.00 0.00 21 1019.7
20260501213044 18 246 4.8 17.7 0.00 0.00 0.00 21 1019.7
20260501211541 16 266 1.6 8.0 0.00 0.00 0.00 26 1019.8
20260501210040 17 174 6.4 19.3 0.00 0.00 0.00 23 1019.9
20260501204546 17 94 4.8 12.9 0.00 0.00 0.00 24 1020.1
20260501203036 16 252 3.2 9.7 0.00 0.00 0.00 26 1020.1
20260501201536 17 224 6.4 16.1 0.00 0.00 0.00 24 1020.3
20260501200035 17 259 4.8 16.1 0.00 0.00 0.00 28 1020.3
20260501194543 16 175 6.4 16.1 0.00 0.00 0.00 27 1020.4
20260501193038 15 201 3.2 11.3 0.00 0.00 0.00 27 1020.7
20260501191538 14 34 3.2 17.7 0.00 0.00 0.00 26 1020.8
20260501190036 14 355 4.8 19.3 0.00 0.00 0.00 34 1021.0
20260501184535 14 13 6.4 17.7 0.00 0.00 0.00 33 1020.9
20260501183041 15 0 3.2 14.5 0.00 0.00 0.00 28 1021.2
20260501181539 15 360 3.2 14.5 0.00 0.00 0.00 38 1021.3
20260501180041 15 126 8.0 25.7 0.00 0.00 0.00 32 1021.4
20260501174552 14 87 8.0 19.3 0.00 0.00 0.00 34 1021.5
20260501173047 13 35 3.2 16.1 0.00 0.00 0.00 35 1021.5
20260501171536 12 0 0.0 14.5 0.00 0.00 0.00 33 1021.7
20260501170035 12 58 1.6 6.4 0.00 0.00 0.00 36 1021.7
20260501164547 12 325 3.2 8.0 0.00 0.00 0.00 36 1021.8
20260501163037 11 66 3.2 8.0 0.00 0.00 0.00 39 1021.7